SIILIN Weather Reports


time (UTC)temp
C
wind
direction
speed
KPH
gust
KPH
rain 1hr
cm
rain 24hr
cm
rain mn
cm
humidity
%
barometer
mb
20260507074726 6 353 8.0 9.7 0.00 0.00 0.00 50 1016.6
20260507072726 5 336 8.0 8.0 0.00 0.00 0.00 49 1016.6
20260507070726 5 313 6.4 8.0 0.00 0.00 0.00 55 1016.6
20260507064726 4 314 4.8 6.4 0.00 0.00 0.00 57 1016.7
20260507062726 3 345 4.8 8.0 0.00 0.00 0.00 62 1016.7
20260507060726 3 4 4.8 6.4 0.00 0.00 0.00 64 1016.6
20260507054726 3 344 4.8 6.4 0.00 0.00 0.00 71 1016.5
20260507052726 3 80 3.2 4.8 0.00 0.00 0.00 64 1016.4
20260507050725 2 33 1.6 3.2 0.00 0.00 0.00 69 1016.6
20260507044725 2 30 3.2 4.8 0.00 0.00 0.00 68 1016.8
20260507042725 2 65 4.8 6.4 0.00 0.00 0.00 71 1016.6
20260507040726 2 57 6.4 8.0 0.00 0.00 0.00 73 1016.6
20260507034726 2 54 6.4 8.0 0.00 0.00 0.00 73 1016.7
20260507032726 1 69 4.8 6.4 0.00 0.00 0.00 80 1016.6
20260507030726 1 51 3.2 6.4 0.00 0.00 0.00 86 1016.6
20260507024725 1 73 3.2 4.8 0.00 0.00 0.00 87 1016.6
20260507022726 1 78 4.8 6.4 0.00 0.00 0.00 88 1016.5
20260507020725 1 74 6.4 8.0 0.00 0.00 0.00 86 1016.3
20260507014725 2 70 6.4 8.0 0.00 0.00 0.00 87 1016.2
20260507012725 2 75 4.8 6.4 0.00 0.00 0.00 87 1016.1
20260507010725 2 347 3.2 4.8 0.00 0.00 0.00 81 1016.0
20260507004725 2 330 3.2 6.4 0.00 0.00 0.00 80 1015.9
20260507002725 2 356 4.8 6.4 0.00 0.00 0.00 76 1015.9
20260507000725 2 354 3.2 4.8 0.00 0.00 0.00 75 1015.8
20260506234725 3 334 3.2 3.2 0.00 0.00 0.00 70 1015.6
20260506232725 3 287 3.2 4.8 0.00 0.00 0.00 66 1015.5
20260506230726 3 309 3.2 6.4 0.00 0.00 0.00 60 1015.4
20260506224724 3 301 4.8 6.4 0.00 0.00 0.00 66 1015.3
20260506222725 3 317 4.8 6.4 0.00 0.00 0.00 65 1015.3
20260506220725 3 329 6.4 9.7 0.00 0.00 0.00 58 1015.1
20260506214725 4 311 4.8 6.4 0.00 0.00 0.00 53 1015.0
20260506212725 4 249 4.8 6.4 0.00 0.00 0.00 58 1014.9
20260506210724 5 243 6.4 8.0 0.00 0.00 0.00 51 1014.8
20260506204724 5 273 6.4 11.3 0.00 0.00 0.00 51 1014.7
20260506202724 5 290 11.3 14.5 0.00 0.00 0.00 41 1014.7
20260506200725 5 285 11.3 14.5 0.00 0.00 0.00 43 1014.6
20260506194724 6 287 11.3 14.5 0.00 0.00 0.00 42 1014.6
20260506192724 6 281 12.9 16.1 0.00 0.00 0.00 44 1014.6
20260506190724 6 268 12.9 16.1 0.00 0.00 0.00 44 1014.4
20260506184723 7 264 14.5 17.7 0.00 0.00 0.00 38 1014.3
20260506182725 7 257 16.1 17.7 0.00 0.00 0.00 44 1014.1
20260506180724 7 252 16.1 19.3 0.00 0.00 0.00 44 1013.9
20260506174724 7 247 17.7 20.9 0.00 0.00 0.00 36 1013.7
20260506172723 7 248 19.3 22.5 0.00 0.00 0.00 39 1013.6
20260506170723 7 270 16.1 20.9 0.00 0.00 0.00 44 1013.5
20260506164723 7 252 17.7 27.4 0.00 0.00 0.00 39 1013.3
20260506160723 7 256 20.9 29.0 0.00 0.00 0.00 30 1013.3
20260506154724 8 274 19.3 30.6 0.00 0.00 0.00 31 1013.4
20260506152723 7 275 22.5 32.2 0.00 0.00 0.00 34 1013.3
20260506150723 7 254 27.4 35.4 0.00 0.00 0.00 31 1013.2
20260506144722 7 271 20.9 29.0 0.00 0.00 0.00 32 1013.3
20260506142723 8 268 24.1 32.2 0.00 0.00 0.00 27 1013.2
20260506140722 8 273 24.1 37.0 0.00 0.00 0.00 24 1013.2
20260506134723 7 272 30.6 41.8 0.00 0.00 0.00 29 1013.1
20260506132722 8 267 20.9 30.6 0.00 0.00 0.00 28 1013.0
20260506130722 7 263 25.7 32.2 0.00 0.00 0.00 36 1012.8
20260506124722 8 284 27.4 38.6 0.00 0.00 0.00 28 1012.8
20260506122722 7 263 20.9 35.4 0.00 0.00 0.00 35 1012.7
20260506120722 7 247 29.0 40.2 0.00 0.00 0.00 29 1012.6
20260506114723 7 274 30.6 43.5 0.00 0.00 0.00 31 1012.5
20260506112723 7 263 29.0 41.8 0.00 0.00 0.00 36 1012.4
20260506110722 7 238 27.4 33.8 0.00 0.00 0.00 31 1012.3
20260506104724 7 256 25.7 46.7 0.00 0.00 0.00 33 1012.3
20260506102724 7 273 32.2 41.8 0.00 0.00 0.00 31 1012.2
20260506100724 7 250 27.4 41.8 0.00 0.00 0.00 31 1012.0
20260506094724 7 248 32.2 45.1 0.00 0.00 0.00 34 1011.7
20260506092723 6 263 32.2 40.2 0.00 0.00 0.00 37 1011.7
20260506090723 6 260 30.6 41.8 0.00 0.00 0.00 38 1011.6
20260506084724 6 242 25.7 35.4 0.00 0.00 0.00 40 1011.6
20260506082724 6 259 25.7 41.8 0.00 0.00 0.00 42 1011.5
20260506080723 6 272 27.4 40.2 0.00 0.00 0.00 41 1011.5